Tracking 28126 objects as of 2-Oct-2023
HD Live streaming from Space Station
objects crossing your sky now

STARLINK-5676

Track STARLINK-5676 now!
10-day predictions
STARLINK-5676 is classified as:


NORAD ID: 55464
Int'l Code: 2023-015R
Perigee: 565.2 km
Apogee: 567.1 km
Inclination: 43.0 °
Period: 95.8 minutes
Semi major axis: 6937 km
RCS: Unknown
Launch date: February 2, 2023
Source: United States (US)
Launch site: AIR FORCE EASTERN TEST RANGE (AFETR)
Your satellite tracking list
Your tracking list is empty




NASA's NSSDC Master Catalog

Two Line Element Set (TLE):
1 55464U 23015R   23274.86825068  .00000749  00000-0  70509-4 0  9991
2 55464  43.0036 120.8676 0001386 264.0402  96.0283 15.02545814 36909
Source of the keplerian elements: AFSPC